Wind_Speed
9 9 10 11 11 11 13 13 13 13 13 12 11 11 11 11 11 11 12 13 14 14 15 15 16 16 17 17 18 18 19 19 19 19 19 19 19 19 19 19 20 20 20 20
9 10 10 11 11 12 13 14 13 13 13 12 11 10 10 11 11 12 13 12 13 13 14 15 15 16 16 17 18 18 18 18 18 18 18 19 19 18 18 18 19 20 19 20
9 10 10 10 11 12 13 13 13 13 12 12 11 10 11 11 11 12 11 12 12 13 14 14 15 16 16 17 18 18 17 17 18 18 18 18 17 17 17 18 18 18 19 20
11 11 11 11 12 13 14 14 14 14 13 12 12 10 11 11 11 11 11 11 12 13 14 14 14 15 16 17 17 16 16 17 17 17 16 16 16 16 16 17 17 18 18 19
13 12 12 11 12 12 13 14 14 13 13 13 13 11 10 11 11 11 11 11 12 13 13 13 13 15 16 16 15 15 16 16 16 16 16 15 15 15 15 15 17 18 18 19
14 14 13 13 14 13 13 14 13 13 13 13 12 11 10 10 10 11 11 12 12 12 12 13 14 15 15 14 14 14 14 15 15 16 15 15 15 15 16 17 17 18 18 19
16 16 15 15 15 14 13 14 13 13 14 13 13 12 11 11 11 11 11 11 12 12 13 14 14 13 13 13 13 13 14 14 15 15 15 15 15 15 16 17 17 18 19 20
17 17 16 16 15 14 14 15 15 15 14 13 13 13 12 11 11 10 11 12 12 12 13 13 13 12 12 12 12 12 13 14 15 14 14 15 15 15 16 17 18 19 20 21
17 17 16 15 15 14 15 15 15 14 13 13 13 13 13 12 11 10 11 11 11 12 12 12 11 11 11 11 11 12 13 15 15 14 14 15 16 16 17 18 19 20 21 21
16 16 15 15 14 14 15 15 15 14 13 13 12 13 12 11 11 11 10 10 10 11 11 11 11 10 11 10 10 12 13 14 14 14 15 16 16 17 17 18 20 21 21 22
15 16 15 14 14 15 15 15 15 14 13 13 12 12 11 10 11 10 9 9 9 9 10 10 10 10 10 10 10 12 14 14 14 15 16 17 17 17 18 19 20 21 22 23
16 15 15 14 14 15 15 14 14 13 12 12 12 12 11 10 9 9 8 8 9 9 9 9 9 9 9 9 10 11 13 14 14 15 16 17 18 18 19 20 21 22 23 24
16 16 15 14 14 14 14 12 11 11 10 10 10 11 10 9 8 7 8 8 8 8 8 8 8 8 8 9 10 11 12 13 14 15 16 17 18 19 20 21 22 23 25 26
16 15 15 14 13 13 11 10 10 9 9 9 9 10 9 8 7 7 7 7 7 7 8 8 7 7 7 8 9 11 12 13 14 15 16 17 18 19 20 21 23 24 26 27
15 14 13 12 11 11 9 8 8 8 7 8 8 8 7 6 6 6 6 6 6 6 6 6 6 6 6 7 9 10 11 13 14 15 16 17 18 20 21 23 24 26 26 27
13 12 12 11 10 9 8 7 7 7 7 7 7 6 5 5 4 5 5 5 5 4 4 5 5 5 6 7 8 10 11 13 14 15 16 17 19 21 22 23 25 26 27 29
12 11 10 9 9 8 8 7 7 7 7 7 6 5 5 5 5 5 4 3 3 4 4 4 4 4 5 6 8 10 11 13 14 15 16 18 19 21 23 24 25 27 28 29
10 9 8 8 7 7 6 6 6 6 6 5 5 5 5 4 4 3 2 2 3 3 4 4 4 4 5 7 8 10 11 12 13 15 16 18 20 21 23 25 26 28 29 29
10 9 9 7 7 7 6 5 5 5 5 5 5 5 4 4 3 2 2 3 2 3 3 3 4 5 6 7 8 9 11 12 14 15 17 19 20 22 24 26 27 28 29 29
11 10 9 7 6 6 5 4 5 5 5 5 5 5 4 4 3 3 2 2 2 3 3 3 4 5 6 7 8 10 11 13 14 16 17 19 20 23 25 26 27 29 29 30
10 10 9 8 7 6 5 5 5 5 5 4 4 4 3 3 3 2 2 2 1 1 2 3 4 5 6 7 8 10 11 13 15 17 18 19 21 22 24 26 27 29 29 30
11 10 10 9 8 7 7 6 6 6 5 4 4 4 3 3 3 3 3 2 1 2 2 3 4 5 6 7 8 10 11 13 15 17 18 19 21 22 24 26 28 29 29 30
12 11 10 10 9 9 8 8 7 7 6 5 5 4 4 4 3 3 3 2 2 3 3 3 4 5 6 7 8 9 11 13 15 16 18 19 20 22 24 26 28 28 29 30
13 13 12 11 11 10 10 9 9 8 7 6 6 5 4 4 3 3 2 3 3 3 3 3 4 4 5 7 8 9 11 13 15 16 17 19 20 22 24 26 27 28 29 29
15 14 13 12 12 11 11 11 10 9 8 7 6 6 5 4 4 3 3 3 3 3 3 3 3 4 5 6 8 9 11 13 14 16 17 19 20 22 24 26 27 28 29 30
16 15 14 13 12 12 12 12 11 10 9 8 7 7 6 5 5 4 4 3 3 3 3 3 3 4 5 6 8 9 11 13 14 16 17 18 20 22 24 25 26 27 28 29
17 16 15 14 14 14 13 12 11 11 11 10 9 8 8 7 6 6 5 4 4 4 3 3 3 4 5 6 7 9 11 12 14 16 17 18 20 22 23 25 26 27 28 29
Wind_Direction
316 313 314 319 327 324 318 318 315 313 314 313 312 314 312 315 315 314 316 317 318 316 318 321 322 321 321 323 324 323 322 322 320 318 318 316 316 314 313 311 311 310 310 308
321 323 324 327 330 327 323 323 322 319 317 316 315 312 312 312 313 312 316 316 318 320 323 323 323 325 324 327 328 328 328 327 327 324 321 320 318 317 316 315 314 314 313 314
324 325 326 328 327 322 319 320 317 319 321 317 312 305 307 308 310 310 313 316 318 322 325 326 326 327 330 330 331 331 331 330 328 327 325 324 323 322 321 320 318 317 316 316
324 321 323 326 321 319 319 321 320 317 318 317 315 309 309 307 304 305 311 313 316 322 327 330 331 332 333 335 335 336 338 339 338 336 333 331 331 329 326 325 324 324 320 320
320 319 321 320 317 318 320 320 321 318 316 315 310 309 307 304 302 304 311 313 317 322 328 333 333 333 334 337 338 338 340 342 344 344 342 342 341 336 332 331 329 329 325 327
321 319 317 318 319 317 317 318 318 318 320 318 314 310 308 306 303 306 312 317 321 324 329 333 334 335 336 338 339 340 343 345 347 347 347 346 344 341 339 338 337 336 333 332
318 316 313 316 316 314 313 315 313 315 316 317 314 312 310 310 310 312 314 315 320 325 331 332 333 336 340 340 341 345 347 347 347 348 348 348 347 345 343 342 340 339 338 335
317 318 315 316 315 312 310 308 309 311 310 310 311 309 305 304 307 312 316 317 319 323 328 330 332 336 341 343 344 347 347 346 345 346 348 351 351 349 347 345 343 341 339 337
312 316 316 314 312 310 309 309 310 307 305 305 306 307 305 302 304 305 312 317 319 322 325 328 330 333 339 341 345 346 347 347 348 346 349 351 351 350 348 347 345 343 340 339
309 314 314 310 307 309 307 308 311 307 303 303 306 308 304 302 302 303 307 312 316 319 323 327 329 331 335 337 342 346 348 348 349 349 350 350 351 351 349 347 345 344 343 342
308 309 307 302 301 302 300 302 305 302 299 301 301 301 305 306 299 299 302 307 312 317 319 323 328 329 333 337 341 345 348 350 350 351 351 351 351 350 348 347 346 347 346 344
303 305 303 301 300 298 299 301 303 301 298 298 297 300 304 302 298 299 304 307 313 317 318 320 325 330 335 340 343 345 348 350 351 352 353 352 352 350 350 349 350 350 349 348
303 304 303 303 303 302 302 302 300 298 299 301 300 304 305 300 296 298 300 305 308 313 314 318 323 328 333 341 345 348 350 351 353 353 352 353 354 354 354 355 355 353 351 349
302 301 301 302 301 303 303 299 295 297 299 302 303 305 305 304 301 301 301 304 306 310 313 318 323 327 333 340 345 347 350 352 353 352 353 354 356 355 354 355 355 354 352 351
299 299 300 298 297 300 296 291 293 299 301 303 305 306 308 310 308 306 305 307 312 315 319 325 331 339 343 344 346 348 351 354 356 355 356 358 357 356 355 355 355 354 353 352
294 295 296 295 296 295 294 287 292 298 300 301 308 308 305 311 312 309 305 307 318 322 328 335 344 354 354 354 353 353 354 357 359 359 359 359 358 358 358 357 356 355 353 352
290 290 291 291 292 290 291 290 291 293 295 297 303 302 305 313 315 312 313 320 328 341 343 348 351 354 357 355 355 357 358 359 360 1 360 359 358 359 0 360 357 356 355 355
281 285 290 292 290 287 285 284 282 284 287 285 286 291 301 312 317 317 327 342 344 349 351 356 4 4 1 0 1 0 0 360 1 1 360 359 359 0 1 0 359 358 357 356
272 277 280 282 285 286 283 279 270 269 270 271 276 280 291 293 291 295 317 340 347 348 351 359 3 5 1 2 2 360 358 359 0 359 358 358 359 1 1 0 359 358 357 357
264 265 268 272 279 279 270 264 257 259 268 279 278 280 287 282 279 285 305 319 332 342 350 4 9 5 360 358 359 359 0 1 360 358 359 359 359 0 0 360 359 359 359 359
257 256 260 267 268 262 255 255 257 261 267 273 272 268 267 266 268 274 280 288 311 348 358 2 359 357 356 357 358 0 2 1 360 359 359 359 359 360 1 0 360 359 359 0
250 252 257 259 257 255 253 252 250 251 252 253 255 253 249 248 255 263 274 264 277 304 326 343 349 351 354 353 356 0 2 2 -0 359 359 359 360 0 1 1 0 360 0 1
246 247 252 256 258 254 246 243 243 241 242 243 249 250 248 250 253 255 264 271 288 300 309 325 336 346 352 355 357 359 1 0 359 359 360 0 0 1 1 1 1 1 1 2
243 243 247 250 250 244 236 233 233 237 240 238 240 242 240 242 248 253 260 275 288 294 303 317 328 340 349 354 357 357 358 357 358 359 0 1 0 0 1 1 2 2 2 3
239 241 243 244 244 237 230 229 230 234 234 231 231 234 234 232 233 239 251 268 288 296 303 317 333 343 346 350 352 353 356 357 358 360 1 1 2 2 2 2 3 3 3 4
237 237 237 239 239 233 231 230 229 229 231 231 232 233 235 236 239 241 245 257 270 284 298 314 333 341 345 349 352 353 354 356 358 360 0 1 2 2 2 2 3 3 3 4
235 234 234 235 233 231 230 230 228 226 228 231 230 231 236 241 244 243 244 250 262 276 288 300 318 335 340 344 349 353 356 358 0 2 2 1 1 2 2 3 3 4 4 5
Height
5806 5805 5803 5802 5801 5798 5797 5794 5793 5792 5790 5789 5788 5787 5786 5785 5784 5783 5781 5780 5778 5775 5773 5771 5768 5765 5762 5759 5756 5752 5749 5746 5742 5739 5736 5733 5730 5728 5725 5722 5720 5717 5714 5711
5805 5804 5802 5800 5799 5797 5794 5792 5791 5789 5788 5786 5785 5784 5783 5782 5781 5780 5779 5777 5775 5773 5770 5768 5765 5762 5759 5756 5753 5749 5746 5742 5739 5735 5732 5729 5727 5724 5721 5719 5716 5713 5710 5707
5804 5802 5800 5799 5797 5794 5792 5790 5789 5787 5786 5783 5782 5781 5780 5779 5778 5777 5776 5774 5772 5770 5768 5765 5762 5760 5757 5754 5750 5746 5743 5739 5736 5732 5729 5726 5723 5721 5718 5715 5712 5709 5706 5703
5801 5801 5798 5799 5794 5792 5790 5788 5786 5784 5782 5781 5779 5778 5777 5776 5775 5775 5773 5771 5770 5768 5765 5762 5760 5757 5754 5751 5748 5744 5741 5737 5733 5729 5726 5723 5720 5718 5715 5712 5709 5706 5702 5698
5799 5797 5795 5795 5792 5789 5787 5785 5784 5781 5779 5778 5776 5775 5774 5773 5772 5772 5770 5768 5767 5765 5763 5760 5757 5755 5752 5749 5746 5743 5739 5735 5731 5728 5725 5721 5718 5715 5712 5709 5706 5702 5699 5695
5796 5793 5792 5792 5789 5787 5786 5783 5781 5778 5776 5775 5773 5772 5772 5770 5769 5768 5767 5765 5764 5762 5760 5758 5755 5753 5750 5747 5744 5741 5738 5734 5731 5727 5724 5720 5717 5713 5710 5707 5704 5700 5696 5692
5794 5791 5789 5788 5786 5785 5783 5781 5778 5776 5774 5772 5771 5770 5769 5767 5766 5765 5764 5762 5761 5759 5758 5756 5753 5751 5748 5746 5743 5740 5737 5734 5730 5727 5723 5719 5716 5712 5709 5705 5702 5698 5694 5690
5790 5788 5788 5784 5782 5781 5779 5776 5774 5773 5771 5770 5768 5767 5765 5764 5762 5762 5760 5759 5758 5757 5755 5753 5751 5749 5747 5744 5742 5739 5736 5733 5730 5726 5722 5719 5715 5711 5708 5704 5700 5696 5692 5688
5787 5786 5783 5780 5778 5776 5774 5772 5771 5769 5768 5767 5766 5764 5762 5761 5760 5759 5758 5757 5756 5754 5753 5751 5749 5747 5745 5743 5741 5738 5735 5732 5729 5725 5722 5718 5714 5710 5707 5703 5699 5694 5690 5685
5783 5781 5779 5776 5774 5772 5770 5768 5767 5766 5764 5763 5762 5761 5760 5759 5758 5757 5755 5754 5753 5752 5751 5749 5747 5746 5744 5741 5739 5737 5734 5731 5728 5725 5721 5717 5713 5710 5706 5701 5697 5692 5688 5683
5779 5778 5776 5773 5771 5769 5767 5765 5763 5762 5761 5760 5759 5757 5756 5756 5755 5754 5753 5752 5751 5750 5749 5747 5746 5744 5742 5740 5738 5736 5733 5730 5727 5724 5720 5716 5712 5708 5704 5700 5695 5691 5685 5680
5775 5773 5771 5769 5767 5765 5763 5761 5760 5758 5757 5756 5755 5754 5753 5752 5752 5751 5751 5750 5749 5748 5747 5746 5744 5743 5741 5739 5737 5735 5732 5730 5726 5723 5719 5716 5712 5707 5703 5699 5694 5689 5684 5678
5770 5768 5766 5764 5763 5761 5759 5758 5756 5755 5754 5753 5752 5751 5750 5749 5749 5749 5748 5747 5747 5746 5745 5744 5743 5741 5740 5738 5736 5734 5732 5729 5726 5722 5719 5715 5711 5707 5702 5698 5692 5687 5682 5676
5765 5763 5762 5760 5759 5757 5756 5754 5753 5752 5751 5750 5749 5748 5747 5746 5746 5746 5745 5745 5744 5744 5743 5742 5741 5740 5738 5737 5735 5733 5731 5728 5725 5722 5718 5714 5710 5706 5701 5696 5691 5686 5680 5674
5761 5759 5758 5756 5755 5754 5752 5752 5751 5750 5749 5748 5747 5746 5745 5744 5744 5744 5743 5743 5742 5742 5741 5740 5739 5738 5737 5736 5734 5732 5730 5727 5724 5721 5717 5714 5709 5705 5700 5695 5690 5684 5678 5672
5757 5755 5754 5753 5751 5751 5750 5749 5749 5748 5747 5746 5745 5744 5744 5743 5743 5742 5742 5741 5741 5740 5739 5739 5738 5737 5736 5735 5733 5731 5729 5726 5723 5720 5717 5713 5709 5704 5699 5694 5688 5682 5676 5670
5753 5752 5751 5750 5749 5748 5747 5747 5746 5745 5745 5744 5743 5743 5742 5742 5741 5741 5740 5740 5739 5739 5738 5738 5737 5736 5735 5734 5732 5731 5728 5726 5723 5720 5716 5712 5708 5703 5698 5693 5687 5681 5675 5669
5749 5748 5747 5747 5746 5745 5745 5744 5744 5743 5743 5742 5742 5741 5741 5741 5741 5740 5739 5739 5739 5738 5737 5737 5736 5735 5734 5733 5731 5730 5727 5725 5722 5719 5716 5712 5707 5703 5698 5692 5686 5680 5674 5667
5745 5745 5745 5744 5744 5743 5742 5742 5741 5741 5741 5741 5740 5740 5740 5740 5739 5739 5738 5738 5738 5737 5737 5736 5735 5734 5733 5732 5731 5729 5727 5724 5721 5718 5715 5711 5706 5702 5696 5691 5685 5679 5672 5666
5741 5741 5741 5741 5741 5740 5740 5739 5739 5739 5739 5739 5739 5738 5738 5738 5738 5737 5737 5737 5736 5736 5736 5735 5734 5734 5732 5731 5730 5728 5726 5723 5720 5717 5713 5709 5705 5701 5695 5690 5684 5678 5671 5665
5737 5737 5738 5738 5738 5737 5737 5737 5738 5738 5737 5737 5737 5737 5737 5736 5736 5736 5736 5736 5736 5735 5735 5734 5733 5733 5731 5730 5729 5727 5725 5722 5719 5716 5712 5708 5704 5700 5695 5689 5683 5677 5671 5664
5733 5733 5734 5734 5734 5734 5734 5735 5735 5736 5736 5735 5735 5735 5735 5735 5735 5734 5734 5735 5734 5734 5734 5733 5733 5732 5730 5729 5728 5726 5723 5721 5718 5715 5711 5707 5703 5699 5694 5688 5682 5676 5670 5663
5728 5729 5730 5730 5731 5731 5731 5732 5733 5733 5733 5733 5734 5733 5733 5733 5733 5733 5733 5733 5733 5733 5732 5732 5731 5730 5729 5728 5726 5724 5722 5720 5717 5714 5710 5706 5702 5698 5693 5687 5681 5675 5669 5662
5723 5724 5725 5726 5727 5728 5729 5729 5730 5731 5731 5731 5732 5731 5731 5732 5732 5732 5732 5732 5732 5731 5731 5731 5730 5729 5728 5726 5725 5723 5721 5719 5716 5713 5709 5705 5701 5697 5692 5686 5681 5675 5668 5662
5718 5719 5721 5722 5723 5724 5725 5726 5727 5728 5729 5729 5730 5730 5730 5730 5730 5730 5730 5730 5730 5730 5729 5729 5728 5727 5727 5725 5724 5722 5720 5718 5715 5712 5708 5704 5700 5696 5691 5686 5680 5674 5668 5662
5713 5714 5716 5717 5718 5720 5721 5722 5724 5725 5726 5727 5727 5728 5728 5728 5728 5729 5729 5729 5729 5729 5728 5728 5727 5726 5725 5724 5722 5721 5719 5716 5714 5710 5707 5703 5699 5695 5690 5685 5679 5674 5668 5662
5707 5709 5711 5713 5714 5715 5717 5719 5720 5722 5723 5724 5725 5725 5726 5726 5726 5727 5727 5727 5727 5727 5726 5726 5725 5725 5724 5723 5721 5720 5718 5715 5712 5709 5706 5702 5698 5694 5689 5684 5679 5674 5668 5662